Location: Powder Track
(41.8531°N, 72.3584°W)
Time: 22:53:20
(UTC+00:00)

X-37B - Pass Details

Date: 30 June 2021
Orbit: 383 x 392 km, 45.0° (Epoch: 01 July)

Event Time Altitude Azimuth Distance (km) Brightness Sun altitude
Rises 01:40:16 0° 280° (W) 2,258 5.4 -11.2°
Reaches altitude 10° 01:42:23 10° 287° (WNW) 1,403 4.4 -11.5°
Maximum altitude 01:45:26 44° 1° (N) 544 1.7 -11.8°
Drops below altitude 10° 01:48:28 10° 75° (ENE) 1,402 3.1 -12.2°
Enters shadow 01:49:03 - 78° (ENE) 1,634 3.4 -12.3°
